{"data":{"norad_id":45098,"epoch":"2026-09-20T03:18:54.876096Z","epoch_age_seconds":45683,"freshness":"FRESH","line1":"1 45098U 20006BG  26263.13813514  .00024807  00000+0  12002-2 0  9996","line2":"2 45098  53.0498  81.4103 0002499  45.1132 315.0064 15.18466043366501","mean_motion":15.18466043,"eccentricity":0.0002499,"inclination_deg":53.0498,"raan_deg":81.4103,"arg_perigee_deg":45.1132,"mean_anomaly_deg":315.0064,"bstar":0.0012002,"rev_number":36650,"period_min":94.832545425581,"perigee_km":508.75450646371,"apogee_km":512.19743522654,"semimajor_km":6888.6129708451,"source":"CELESTRAK","updated_at":"2026-09-20T09:00:38.225396Z"}}